Location: Asbacherhof
(48.8543°N, 10.7903°E)
Time: 23:06:09
(UTC+00:00)

EO 1 Del DPAF - Pass Details

Date: 26 May 2022
Orbit: 462 x 466 km, 98.0° (Epoch: 26 June)

Event Time Altitude Azimuth Distance (km) Brightness Sun altitude
Rises 01:57:47 0° 11° (N) 2,537 7.9 -11.1°
Reaches altitude 10° 01:59:52 10° 8° (N) 1,650 6.7 -10.9°
Maximum altitude 02:03:22 63° 287° (WNW) 530 3.1 -10.5°
Enters shadow 02:06:13 14° 207° (SSW) 1,376 4.7 -10.2°
